Weather History for KMRB - July, 2013

Change the Weather History Date:

Thursday, July 4, 2013

  Actual Average Record
Temperature  
Mean Temperature 78 °F 74 °F  
Max Temperature 88 °F 86 °F 101 °F (1999)
Min Temperature 68 °F 63 °F 47 °F (1971)
Degree Days  
Heating Degree Days 0 0  
Month to date heating degree days 0 0  
Since 1 June heating degree days 2 24  
Since 1 July heating degree days 0 0  
Cooling Degree Days 13 9  
Month to date cooling degree days 50 36  
Year to date cooling degree days 389 276  
Since 1 June cooling degree days 278 219  
Growing Degree Days 28 (Base 50)    
Moisture  
Dew Point 70 °F    
Average Humidity 76    
Maximum Humidity 97    
Minimum Humidity 55    
Precipitation  
Precipitation 0.00 in 0.11 in 2.00 in (1981)
Month to date precipitation 0.10 0.45  
Year to date precipitation 15.36 19.94  
Sea Level Pressure  
Sea Level Pressure 30.20 in    
Wind  
Wind Speed 5 mph (South)    
Max Wind Speed 17 mph    
Max Gust Speed 24 mph    
Visibility 10 miles    
Events      
T = Trace of Precipitation, MM = Missing Value Source: NWS Daily Summary

Daily Weather History Graph

Daily Weather History Graph

Search for Another Location

Airport or City:

Trip Planner

Search our weather history database for the weather conditions in past years. The results will help you decide how hot, cold, wet, or windy it might be!

Date:

Astronomy

Jul. 04, 2013 Rise Set
Actual Time 5:50 AM EDT 8:42 PM EDT
Civil Twilight 5:18 AM EDT 9:14 PM EDT
Nautical Twilight 4:37 AM EDT 9:54 PM EDT
Astronomical Twilight 3:51 AM EDT 10:41 PM EDT
Moon 3:05 AM EDT (7/4) 5:45 PM EDT (7/4)
Length of Visible Light 15h 56m
Length of Day
14h 51m
Waning Crescent, 11% of the Moon is Illuminated
Jul 4
Waning Crescent
Jul 8
New
Jul 15
First Quarter
Jul 22
Full
Jul 29
Last Quarter

Hourly Weather History & Observations

Time (EDT) Temp. Heat Index Dew Point Humidity Pressure Visibility Wind Dir Wind Speed Gust Speed Precip Events Conditions
12:53 AM 73.0 °F - 70.0 °F 90% 30.21 in 10.0 mi Calm Calm - N/A   Clear
1:53 AM 72.0 °F - 69.1 °F 91% 30.21 in 10.0 mi Calm Calm - N/A   Clear
2:53 AM 70.0 °F - 68.0 °F 93% 30.20 in 6.0 mi Calm Calm - N/A   Clear
3:53 AM 69.1 °F - 66.9 °F 93% 30.19 in 9.0 mi Calm Calm - N/A   Clear
4:53 AM 71.1 °F - 68.0 °F 90% 30.20 in 10.0 mi Calm Calm - N/A   Clear
5:53 AM 70.0 °F - 68.0 °F 93% 30.22 in 9.0 mi Calm Calm - N/A   Mostly Cloudy
6:53 AM 72.0 °F - 70.0 °F 93% 30.22 in 9.0 mi Calm Calm - N/A   Partly Cloudy
7:53 AM 75.0 °F - 71.1 °F 87% 30.23 in 10.0 mi Calm Calm - N/A   Clear
8:53 AM 78.1 °F - 70.0 °F 76% 30.24 in 10.0 mi South 3.5 mph - N/A   Partly Cloudy
9:53 AM 81.0 °F 84.4 °F 70.0 °F 69% 30.24 in 10.0 mi South 8.1 mph - N/A   Partly Cloudy
10:53 AM 82.0 °F 85.9 °F 70.0 °F 67% 30.23 in 10.0 mi SSW 6.9 mph - N/A   Scattered Clouds
11:53 AM 84.0 °F 88.4 °F 70.0 °F 63% 30.22 in 10.0 mi South 6.9 mph - N/A   Mostly Cloudy
12:53 PM 87.1 °F 92.8 °F 71.1 °F 59% 30.22 in 10.0 mi South 8.1 mph - N/A   Mostly Cloudy
1:53 PM 88.0 °F 92.9 °F 70.0 °F 55% 30.20 in 10.0 mi SSE 10.4 mph 18.4 mph N/A   Scattered Clouds
2:53 PM 88.0 °F 93.8 °F 71.1 °F 57% 30.19 in 10.0 mi South 11.5 mph 19.6 mph N/A   Scattered Clouds
3:53 PM 87.1 °F 93.6 °F 72.0 °F 61% 30.18 in 10.0 mi South 11.5 mph 21.9 mph N/A   Mostly Cloudy
4:53 PM 87.1 °F 92.8 °F 71.1 °F 59% 30.16 in 10.0 mi SSW 11.5 mph 19.6 mph N/A   Clear
5:53 PM 86.0 °F 90.7 °F 70.0 °F 59% 30.16 in 10.0 mi SSW 9.2 mph 17.3 mph N/A   Partly Cloudy
6:53 PM 84.9 °F 88.8 °F 69.1 °F 59% 30.16 in 10.0 mi South 11.5 mph - N/A   Clear
7:53 PM 84.0 °F 88.4 °F 70.0 °F 63% 30.17 in 10.0 mi South 8.1 mph - N/A   Partly Cloudy
8:53 PM 80.1 °F 82.7 °F 68.0 °F 67% 30.18 in 10.0 mi SSE 6.9 mph - N/A   Clear
9:53 PM 79.0 °F - 69.1 °F 72% 30.19 in 10.0 mi SSE 6.9 mph - N/A   Clear
10:53 PM 78.1 °F - 69.1 °F 74% 30.20 in 10.0 mi South 4.6 mph - N/A   Clear
11:53 PM 75.9 °F - 69.1 °F 79% 30.20 in 10.0 mi Calm Calm - N/A   Clear